Weather History for Hutchinson, MN

Change the Weather History Date:

Sunday, August 12, 2012

  Actual Average Record
Temperature  
Mean Temperature 60 °F -  
Max Temperature 62 °F 81 °F 98 °F (1965)
Min Temperature 57 °F 59 °F 41 °F (2004)
Degree Days  
Heating Degree Days 6    
Growing Degree Days 10 (Base 50)    
Moisture  
Dew Point 59 °F    
Average Humidity 93    
Maximum Humidity 99    
Minimum Humidity 82    
Precipitation  
Precipitation 0.25 in - - ()
Sea Level Pressure  
Sea Level Pressure 30.02 in    
Wind  
Wind Speed 1 mph (North)    
Max Wind Speed 6 mph    
Max Gust Speed -    
Visibility 9 miles    
Events Rain    
Averages and records for this station are not official NWS values.
T = Trace of Precipitation, MM = Missing Value Source: NWS Daily Summary

Daily Weather History Graph

Daily Weather History Graph

Search for Another Location

Airport:

Trip Planner

Search our weather history database for the weather conditions in past years. The results will help you decide how hot, cold, wet, or windy it might be!

Date:

Astronomy

Aug. 12, 2012 Rise Set
Actual Time 6:16 AM CDT 8:27 PM CDT
Civil Twilight 5:44 AM CDT 8:59 PM CDT
Nautical Twilight 5:04 AM CDT 9:39 PM CDT
Astronomical Twilight 4:20 AM CDT 10:22 PM CDT
Moon 1:25 AM CDT (8/12) 4:58 PM CDT (8/12)
Length of Visible Light 15h 15m
Length of Day
14h 10m
Waning Crescent, 24% of the Moon is Illuminated
Aug 12
Waning Crescent
Aug 17
New
Aug 24
First Quarter
Aug 31
Full
Sep 8
Last Quarter

Hourly Weather History & Observations

Time (CDT) Temp. Dew Point Humidity Pressure Visibility Wind Dir Wind Speed Gust Speed Precip Events Conditions
12:10 AM 62.6 °F 57.2 °F 82% 30.02 in 10.0 mi Calm Calm - N/A   Clear
12:30 AM 62.6 °F 57.2 °F 82% 30.02 in 10.0 mi Calm Calm - N/A   Clear
12:50 AM 62.6 °F 57.2 °F 82% 30.02 in 10.0 mi Calm Calm - N/A   Mostly Cloudy
1:10 AM 62.6 °F 57.2 °F 82% 30.02 in 10.0 mi Calm Calm - N/A   Overcast
1:30 AM 62.6 °F 59.0 °F 88% 30.01 in 10.0 mi Calm Calm - N/A   Overcast
1:50 AM 60.8 °F 59.0 °F 94% 30.01 in 10.0 mi Calm Calm - N/A   Overcast
2:10 AM 62.6 °F 57.2 °F 82% 30.01 in 10.0 mi Calm Calm - N/A   Overcast
2:29 AM 61.7 °F 58.3 °F 89% 30.01 in 10.0 mi Calm Calm - N/A   Overcast
2:31 AM 61.7 °F 58.3 °F 89% 30.01 in 10.0 mi Calm Calm - N/A   Overcast
2:49 AM 61.7 °F 57.6 °F 86% 30.00 in 10.0 mi Calm Calm - N/A Rain Light Rain
3:10 AM 61.7 °F 58.5 °F 89% 30.00 in 10.0 mi Calm Calm - N/A   Overcast
3:30 AM 61.7 °F 58.8 °F 90% 30.00 in 10.0 mi Calm Calm - N/A Rain Light Rain
3:50 AM 61.7 °F 57.7 °F 87% 30.00 in 10.0 mi Calm Calm - N/A Rain Light Rain
4:10 AM 61.7 °F 57.7 °F 87% 30.01 in 10.0 mi Calm Calm - N/A Rain Light Rain
4:30 AM 60.4 °F 58.3 °F 93% 30.02 in 10.0 mi WSW 3.5 mph - N/A Rain Light Rain
4:50 AM 60.3 °F 58.5 °F 94% 30.03 in 5.0 mi Calm Calm - 0.02 in Rain Rain
5:09 AM 59.2 °F 58.1 °F 96% 30.03 in 7.0 mi West 3.5 mph - 0.01 in Rain Light Rain
5:30 AM 59.2 °F 58.1 °F 96% 30.03 in 7.0 mi Calm Calm - 0.03 in Rain Rain
5:50 AM 59.2 °F 58.1 °F 96% 30.03 in 5.0 mi West 3.5 mph - 0.06 in Rain Rain
6:10 AM 59.2 °F 58.1 °F 96% 30.03 in 10.0 mi Calm Calm - 0.01 in Rain Light Rain
6:29 AM 57.2 °F 56.3 °F 97% 30.03 in 10.0 mi Calm Calm - 0.02 in Rain Light Rain
6:49 AM 57.0 °F 56.5 °F 98% 30.03 in 10.0 mi Calm Calm - 0.02 in Rain Light Rain
7:09 AM 57.2 °F 56.7 °F 98% 30.02 in 7.0 mi Calm Calm - 0.01 in Rain Light Rain
7:29 AM 57.2 °F 57.0 °F 99% 30.02 in 5.0 mi Calm Calm - 0.02 in Rain Light Rain
7:50 AM 59.2 °F 59.0 °F 99% 30.02 in 10.0 mi Calm Calm - 0.02 in Rain Light Rain
8:10 AM 59.2 °F 58.8 °F 99% 30.02 in 7.0 mi Calm Calm - N/A Rain Light Rain
8:29 AM 59.2 °F 58.6 °F 98% 30.01 in 10.0 mi Calm Calm - 0.01 in Rain Light Rain
8:50 AM 59.2 °F 58.5 °F 97% 30.02 in 7.0 mi Calm Calm - 0.03 in Rain Rain
9:10 AM 59.2 °F 58.3 °F 97% 30.02 in 7.0 mi Calm Calm - 0.01 in Rain Rain
9:29 AM 59.2 °F 58.3 °F 97% 30.02 in 7.0 mi Calm Calm - 0.03 in Rain Light Rain
9:50 AM 59.2 °F 57.9 °F 96% 30.01 in 10.0 mi Calm Calm - 0.04 in Rain Light Rain
10:10 AM 59.4 °F 56.7 °F 91% 30.02 in 10.0 mi Calm Calm - N/A   Drizzle
10:28 AM 60.3 °F 57.4 °F 90% 30.02 in 10.0 mi Calm Calm - N/A Rain Rain
10:50 AM 60.8 °F 57.2 °F 88% 30.02 in 10.0 mi NE 3.5 mph - N/A   Overcast
11:10 AM 60.8 °F 57.2 °F 88% 30.02 in 10.0 mi Calm Calm - N/A   Overcast
11:30 AM 60.8 °F 57.2 °F 88% 30.02 in 10.0 mi Calm Calm - N/A   Overcast
11:50 AM 60.8 °F 59.0 °F 94% 30.02 in 10.0 mi Calm Calm - N/A   Overcast
12:10 PM 60.8 °F 59.0 °F 94% 30.02 in 10.0 mi Calm Calm - N/A   Overcast
12:30 PM 60.8 °F 57.2 °F 88% 30.02 in 10.0 mi Calm Calm - N/A   Overcast
12:50 PM 60.8 °F 59.0 °F 94% 30.02 in 10.0 mi Calm Calm - N/A   Overcast
1:10 PM 60.8 °F 59.0 °F 94% 30.02 in 7.0 mi North 3.5 mph - N/A   Mostly Cloudy
1:30 PM 60.8 °F 59.0 °F 94% 30.01 in 10.0 mi NNE 4.6 mph - N/A   Mostly Cloudy
1:50 PM 60.8 °F 59.0 °F 94% 30.01 in 10.0 mi ENE 4.6 mph - N/A   Overcast
2:09 PM 61.7 °F 58.8 °F 90% 30.01 in 10.0 mi ENE 4.6 mph - N/A   Overcast
2:10 PM 60.8 °F 59.0 °F 94% 30.01 in 10.0 mi ENE 4.6 mph - N/A   Overcast
2:29 PM 61.7 °F 58.5 °F 89% 30.02 in 10.0 mi ENE 4.6 mph - N/A   Overcast
2:49 PM 61.7 °F 57.9 °F 87% 30.01 in 10.0 mi East 5.8 mph - N/A Rain Light Rain
3:10 PM 61.3 °F 59.0 °F 92% 30.01 in 7.0 mi ESE 4.6 mph - 0.01 in Rain Light Rain
3:29 PM 60.4 °F 59.0 °F 95% 30.01 in 7.0 mi ESE 3.5 mph - 0.03 in Rain Light Rain
3:49 PM 60.4 °F 58.6 °F 94% 30.01 in 10.0 mi East 3.5 mph - 0.03 in Rain Rain
4:10 PM 60.8 °F 59.0 °F 94% 30.01 in 10.0 mi ENE 3.5 mph - N/A Rain Light Rain
4:29 PM 60.4 °F 58.3 °F 93% 30.01 in 10.0 mi East 3.5 mph - N/A Rain Light Rain
4:50 PM 60.6 °F 59.0 °F 94% 30.01 in 7.0 mi Calm Calm - 0.02 in Rain Rain
5:10 PM 61.5 °F 60.1 °F 95% 30.01 in 10.0 mi Calm Calm - 0.01 in Rain Light Rain
5:29 PM 61.7 °F 60.3 °F 95% 30.01 in 10.0 mi NNE 4.6 mph - 0.01 in Rain Light Rain
5:50 PM 61.7 °F 59.0 °F 91% 30.01 in 10.0 mi Calm Calm - 0.01 in   Light Drizzle
6:09 PM 61.7 °F 59.4 °F 92% 30.01 in 10.0 mi Calm Calm - N/A Rain Light Rain
6:29 PM 61.7 °F 59.5 °F 93% 30.01 in 10.0 mi Calm Calm - N/A   Drizzle
6:50 PM 62.1 °F 59.9 °F 93% 30.01 in 10.0 mi NNW 3.5 mph - N/A   Light Drizzle
7:09 PM 62.1 °F 60.1 °F 93% 30.01 in 10.0 mi NNW 3.5 mph - N/A   Overcast
7:30 PM 61.7 °F 60.3 °F 95% 30.01 in 10.0 mi NNW 3.5 mph - N/A   Overcast
7:49 PM 61.7 °F 60.4 °F 96% 30.01 in 10.0 mi Calm Calm - N/A Rain Light Rain
8:10 PM 61.7 °F 60.8 °F 97% 30.02 in 10.0 mi Calm Calm - N/A   Overcast
8:30 PM 61.2 °F 60.4 °F 97% 30.02 in 10.0 mi Calm Calm - N/A   Overcast
8:50 PM 60.4 °F 59.9 °F 98% 30.02 in 10.0 mi Calm Calm - N/A   Overcast
9:09 PM 60.4 °F 60.1 °F 99% 30.03 in 10.0 mi Calm Calm - N/A   Overcast
9:29 PM 60.4 °F 60.3 °F 99% 30.04 in 10.0 mi Calm Calm - N/A   Overcast
9:50 PM 60.4 °F 60.3 °F 99% 30.04 in 10.0 mi Calm Calm - N/A   Overcast
10:09 PM 60.4 °F 60.3 °F 99% 30.04 in 10.0 mi West 3.5 mph - N/A   Overcast
10:30 PM 60.4 °F 60.3 °F 99% 30.05 in 10.0 mi West 4.6 mph - N/A   Overcast
10:49 PM 60.4 °F 60.1 °F 99% 30.05 in 10.0 mi West 3.5 mph - N/A   Mostly Cloudy
11:10 PM 59.2 °F 59.0 °F 99% 30.04 in 10.0 mi WSW 3.5 mph - N/A   Scattered Clouds
11:30 PM 58.5 °F 58.3 °F 99% 30.04 in 10.0 mi West 5.8 mph - N/A   Clear
11:49 PM 57.4 °F 57.2 °F 99% 30.05 in 10.0 mi West 3.5 mph - N/A   Clear